| time (UTC) | temp F | wind direction | speed knots | gust knots | rain 1hr in | rain 24hr in | rain mn in | humidity % | barometer mb |
| 20260508043047 | 44 | 235 | 0.0 | 0.9 | 0.00 | 0.86 | 0.00 | 98 | 1001.8 |
| 20260508041545 | 44 | 235 | 0.0 | 0.0 | 0.00 | 0.86 | 0.00 | 98 | 1002.1 |
| 20260508040043 | 44 | 235 | 0.0 | 0.0 | 0.00 | 0.86 | 0.00 | 98 | 1002.1 |
| 20260508034542 | 44 | 235 | 0.0 | 0.0 | 0.00 | 0.86 | 0.00 | 98 | 1002.4 |
| 20260508033141 | 44 | 235 | 0.9 | 1.7 | 0.00 | 0.86 | 0.00 | 98 | 1002.5 |
| 20260508031538 | 44 | 235 | 0.9 | 2.6 | 0.00 | 0.86 | 0.00 | 98 | 1002.4 |
| 20260508030035 | 43 | 235 | 1.7 | 3.5 | 0.00 | 0.86 | 0.86 | 98 | 1002.6 |
| 20260508024541 | 43 | 235 | 0.9 | 3.5 | 0.00 | 0.86 | 0.86 | 98 | 1002.4 |
| 20260508023037 | 43 | 235 | 0.9 | 3.5 | 0.00 | 0.86 | 0.86 | 98 | 1002.3 |
| 20260508021535 | 43 | 235 | 0.9 | 3.5 | 0.00 | 0.86 | 0.86 | 98 | 1002.3 |
| 20260508020033 | 43 | 255 | 1.7 | 6.1 | 0.00 | 0.86 | 0.86 | 98 | 1002.4 |
| 20260508014534 | 44 | 247 | 3.5 | 7.0 | 0.00 | 0.86 | 0.86 | 98 | 1002.8 |
| 20260508013031 | 44 | 262 | 0.9 | 7.0 | 0.00 | 0.86 | 0.86 | 98 | 1002.4 |
| 20260508011541 | 44 | 229 | 2.6 | 7.0 | 0.00 | 0.86 | 0.86 | 98 | 1002.4 |
| 20260508010032 | 44 | 231 | 3.5 | 8.7 | 0.00 | 0.86 | 0.86 | 98 | 1002.8 |
| 20260508004525 | 45 | 228 | 5.2 | 7.8 | 0.00 | 0.86 | 0.86 | 98 | 1003.2 |
| 20260508003034 | 45 | 229 | 4.3 | 8.7 | 0.00 | 0.86 | 0.86 | 97 | 1002.7 |
| 20260508001522 | 45 | 200 | 2.6 | 8.7 | 0.01 | 0.86 | 0.86 | 98 | 1003.1 |
| 20260508000021 | 45 | 200 | 4.3 | 9.6 | 0.01 | 0.86 | 0.86 | 98 | 1003.2 |
| 20260507234520 | 46 | 193 | 6.1 | 12.2 | 0.01 | 0.86 | 0.86 | 97 | 1003.0 |
| 20260507233020 | 46 | 214 | 5.2 | 8.7 | 0.01 | 0.86 | 0.86 | 98 | 1003.7 |
| 20260507231518 | 46 | 198 | 6.1 | 10.4 | 0.00 | 0.85 | 0.85 | 97 | 1003.6 |
| 20260507230017 | 46 | 188 | 4.3 | 12.2 | 0.00 | 0.85 | 0.85 | 97 | 1003.7 |
| 20260507224518 | 46 | 208 | 2.6 | 9.6 | 0.00 | 0.85 | 0.85 | 97 | 1003.5 |
| 20260507223017 | 46 | 182 | 5.2 | 12.2 | 0.01 | 0.85 | 0.85 | 97 | 1003.6 |
| 20260507221517 | 47 | 192 | 7.0 | 12.2 | 0.02 | 0.85 | 0.85 | 97 | 1003.8 |
| 20260507220015 | 46 | 162 | 6.1 | 13.0 | 0.09 | 0.85 | 0.85 | 97 | 1003.7 |
| 20260507214514 | 46 | 204 | 7.8 | 15.6 | 0.17 | 0.85 | 0.85 | 97 | 1003.5 |
| 20260507213015 | 46 | 185 | 6.1 | 13.9 | 0.23 | 0.84 | 0.84 | 97 | 1003.9 |
| 20260507211510 | 46 | 180 | 5.2 | 9.6 | 0.30 | 0.83 | 0.83 | 97 | 1004.3 |
| 20260507210008 | 46 | 187 | 7.8 | 13.0 | 0.35 | 0.76 | 0.76 | 97 | 1004.6 |
| 20260507204507 | 46 | 229 | 6.1 | 12.2 | 0.42 | 0.68 | 0.68 | 97 | 1005.1 |
| 20260507203005 | 47 | 234 | 8.7 | 14.8 | 0.43 | 0.61 | 0.61 | 97 | 1005.8 |
| 20260507201504 | 46 | 148 | 7.8 | 14.8 | 0.40 | 0.53 | 0.53 | 97 | 1005.2 |
| 20260507200002 | 46 | 158 | 7.8 | 13.9 | 0.33 | 0.42 | 0.42 | 97 | 1005.6 |
| 20260507194601 | 46 | 188 | 8.7 | 15.6 | 0.21 | 0.26 | 0.26 | 97 | 1006.0 |
| 20260507193110 | 46 | 187 | 8.7 | 20.0 | 0.16 | 0.19 | 0.19 | 97 | 1005.8 |
| 20260507191600 | 47 | 164 | 7.0 | 13.9 | 0.12 | 0.13 | 0.13 | 97 | 1006.2 |
| 20260507184555 | 47 | 195 | 7.0 | 20.0 | 0.05 | 0.05 | 0.05 | 97 | 1006.5 |
| 20260507183058 | 47 | 170 | 11.3 | 20.9 | 0.03 | 0.03 | 0.03 | 97 | 1006.4 |
| 20260507181552 | 46 | 152 | 12.2 | 20.9 | 0.01 | 0.01 | 0.01 | 97 | 1006.4 |
| 20260507180053 | 46 | 152 | 10.4 | 17.4 | 0.00 | 0.00 | 0.00 | 96 | 1006.6 |
| 20260507174548 | 46 | 193 | 12.2 | 20.9 | 0.00 | 0.00 | 0.00 | 96 | 1006.8 |
| 20260507173052 | 46 | 195 | 8.7 | 21.7 | 0.00 | 0.00 | 0.00 | 95 | 1007.6 |
| 20260507171544 | 48 | 146 | 13.0 | 21.7 | 0.00 | 0.00 | 0.00 | 95 | 1007.1 |
| 20260507170040 | 48 | 179 | 10.4 | 20.0 | 0.00 | 0.00 | 0.00 | 95 | 1007.9 |
| 20260507164539 | 48 | 166 | 7.8 | 16.5 | 0.00 | 0.00 | 0.00 | 95 | 1008.0 |
| 20260507163036 | 49 | 169 | 10.4 | 21.7 | 0.00 | 0.00 | 0.00 | 95 | 1008.5 |
| 20260507161533 | 49 | 248 | 6.1 | 18.2 | 0.00 | 0.00 | 0.00 | 96 | 1009.0 |
| 20260507160034 | 48 | 141 | 7.8 | 18.2 | 0.00 | 0.00 | 0.00 | 95 | 1009.3 |
| 20260507154532 | 49 | 168 | 7.0 | 13.9 | 0.00 | 0.00 | 0.00 | 96 | 1009.5 |
| 20260507153028 | 49 | 137 | 7.8 | 12.2 | 0.00 | 0.00 | 0.00 | 96 | 1009.9 |
| 20260507151527 | 48 | 220 | 10.4 | 19.1 | 0.00 | 0.00 | 0.00 | 96 | 1010.4 |
| 20260507150027 | 48 | 180 | 7.8 | 14.8 | 0.00 | 0.00 | 0.00 | 96 | 1010.4 |
| 20260507144524 | 48 | 191 | 8.7 | 19.1 | 0.00 | 0.00 | 0.00 | 96 | 1010.7 |
| 20260507143021 | 49 | 103 | 8.7 | 18.2 | 0.00 | 0.00 | 0.00 | 96 | 1011.3 |
| 20260507141521 | 50 | 185 | 8.7 | 18.2 | 0.00 | 0.00 | 0.00 | 96 | 1011.6 |
| 20260507140021 | 49 | 168 | 7.8 | 18.2 | 0.00 | 0.00 | 0.00 | 96 | 1011.5 |
| 20260507134521 | 49 | 175 | 12.2 | 19.1 | 0.00 | 0.00 | 0.00 | 96 | 1011.9 |
| 20260507133019 | 48 | 195 | 9.6 | 17.4 | 0.00 | 0.00 | 0.00 | 97 | 1011.7 |
| 20260507131519 | 47 | 187 | 8.7 | 17.4 | 0.00 | 0.00 | 0.00 | 96 | 1011.7 |
| 20260507130013 | 46 | 185 | 8.7 | 18.2 | 0.00 | 0.00 | 0.00 | 96 | 1011.8 |
| 20260507124511 | 47 | 166 | 10.4 | 16.5 | 0.00 | 0.00 | 0.00 | 96 | 1012.2 |
| 20260507123010 | 48 | 177 | 6.1 | 16.5 | 0.00 | 0.00 | 0.00 | 96 | 1013.0 |
| 20260507121506 | 47 | 150 | 7.0 | 13.9 | 0.00 | 0.00 | 0.00 | 96 | 1013.1 |
| 20260507120005 | 47 | 163 | 7.8 | 14.8 | 0.00 | 0.00 | 0.00 | 96 | 1014.0 |
| 20260507114504 | 47 | 171 | 8.7 | 15.6 | 0.00 | 0.00 | 0.00 | 96 | 1013.6 |
| 20260507113004 | 47 | 171 | 7.8 | 14.8 | 0.00 | 0.00 | 0.00 | 96 | 1014.3 |
| 20260507111503 | 47 | 177 | 9.6 | 16.5 | 0.00 | 0.00 | 0.00 | 96 | 1013.9 |
| 20260507110002 | 47 | 165 | 7.0 | 16.5 | 0.00 | 0.00 | 0.00 | 96 | 1013.8 |
| 20260507104559 | 47 | 137 | 5.2 | 13.9 | 0.00 | 0.00 | 0.00 | 96 | 1014.3 |
| 20260507103059 | 46 | 198 | 6.1 | 11.3 | 0.00 | 0.00 | 0.00 | 96 | 1014.7 |
| 20260507101556 | 47 | 182 | 4.3 | 13.0 | 0.00 | 0.00 | 0.00 | 96 | 1014.0 |
| 20260507100058 | 46 | 155 | 5.2 | 10.4 | 0.00 | 0.00 | 0.00 | 96 | 1014.3 |
| 20260507094653 | 47 | 202 | 5.2 | 14.8 | 0.00 | 0.00 | 0.00 | 96 | 1014.2 |
| 20260507093050 | 47 | 155 | 6.1 | 12.2 | 0.00 | 0.00 | 0.00 | 96 | 1014.3 |
| 20260507091548 | 46 | 231 | 5.2 | 10.4 | 0.00 | 0.00 | 0.00 | 96 | 1014.9 |
| 20260507090048 | 47 | 214 | 5.2 | 12.2 | 0.00 | 0.00 | 0.00 | 96 | 1014.8 |
| 20260507084550 | 47 | 203 | 5.2 | 13.0 | 0.00 | 0.00 | 0.00 | 96 | 1014.6 |
| 20260507083047 | 47 | 181 | 6.1 | 13.9 | 0.00 | 0.00 | 0.00 | 95 | 1014.6 |
| 20260507081537 | 48 | 186 | 6.1 | 11.3 | 0.00 | 0.00 | 0.00 | 95 | 1014.9 |
| 20260507080035 | 49 | 202 | 6.1 | 14.8 | 0.00 | 0.00 | 0.00 | 95 | 1015.1 |
| 20260507074537 | 49 | 220 | 6.1 | 11.3 | 0.00 | 0.00 | 0.00 | 94 | 1015.2 |
| 20260507073031 | 50 | 197 | 6.1 | 9.6 | 0.00 | 0.00 | 0.00 | 94 | 1015.3 |
| 20260507071548 | 49 | 191 | 5.2 | 10.4 | 0.00 | 0.00 | 0.00 | 94 | 1015.7 |
| 20260507070030 | 48 | 185 | 3.5 | 8.7 | 0.00 | 0.00 | 0.00 | 95 | 1016.0 |
| 20260507064527 | 48 | 173 | 6.1 | 10.4 | 0.00 | 0.00 | 0.00 | 95 | 1015.9 |
| 20260507063027 | 48 | 181 | 7.0 | 12.2 | 0.00 | 0.00 | 0.00 | 95 | 1016.0 |
| 20260507061522 | 48 | 176 | 5.2 | 14.8 | 0.00 | 0.00 | 0.00 | 95 | 1016.3 |
| 20260507060020 | 48 | 217 | 6.1 | 13.0 | 0.00 | 0.00 | 0.00 | 95 | 1016.3 |
| 20260507054518 | 49 | 184 | 6.1 | 10.4 | 0.00 | 0.00 | 0.00 | 95 | 1016.5 |
| 20260507053016 | 49 | 218 | 4.3 | 8.7 | 0.00 | 0.00 | 0.00 | 96 | 1016.8 |
| 20260507051513 | 49 | 220 | 6.1 | 11.3 | 0.00 | 0.00 | 0.00 | 96 | 1017.0 |
| 20260507050012 | 49 | 199 | 7.0 | 10.4 | 0.00 | 0.00 | 0.00 | 96 | 1017.2 |
| 20260507044510 | 49 | 212 | 7.0 | 13.0 | 0.00 | 0.00 | 0.00 | 96 | 1017.3 |